Showing default

IMPULSE-2 MIRA, 62673

Orbit data source: Space-Track

IMPULSE-2 MIRA, 62673 is a payload satellite owned by Impulse Space (US) in SSO that was launched on Tue, 14 Jan 2025 UTC via an FALCON 9 launch vehicle from the Air Force Western Test Range (AFWTR). Payload-class satellites include a variety of spacecraft equipped with specific instruments for various scientific and technological missions. These include communications satellites like Starlink; space stations such as the ISS; scientific satellites like the Hubble; Earth observation satellites from companies like Planet Labs, Umbra, and HawkEye 360; GPS; miniature CubeSats for education and research; and military/defense satellites.

Loading next visibility...
Identifier
62673, 2025-009BS
Orbit
SSO
Country
Flag of USUS
Related business
Manufacturer
Impulse Space
Mission
Operational Commercial Technology
Bus & Motor
MIRA, AOCS
Mass
250 kg wet, 200 kg dry
Launch date (UTC)
2025-01-14 (11 months ago)
Launch vehicle
FALCON 9
Launch site
Air Force Western Test Range (AFWTR)
Object type
Payload
Rocket body
Debris
Shape & HBR
Box, 1.2 m
Radar Cross Section
0.575 m², Medium (>0.1 m² and < 1m²)

Expand to show TLE details & history
Last TLE update: 12 hours ago

TLE from 12 hours ago
0 IMPULSE-2 MIRA
1 62673U 25009BS  25340.51239825  .00015810  00000-0  49541-3 0  9990
2 62673  97.5389  57.7174 0084794  86.5333 274.5601 15.29637240107178
Epoch: 2025-12-06T12:17Z
TLE epoch observation values (Epoch: 2025-12-06T12:17:51.208Z)
Latitude
-0.00006°
Longitude
157.71497°
Altitude
475.864 km
Speed
7.63 km/s
True Right ascension
03h 50m 52s
True Declination
0° 00' 00"
Sunlit
Object was in full shadow at epoch
Visualization orbit readout
Latitude
Unknown
Longitude
Unknown
Altitude
Unknown
Speed
Unknown
Apparent Right ascension
Unknown
Apparent Declination
Unknown
Sunlit
N/A
Visualization observer readout
Local Sidereal Time
21:57:12
Azimuth
Unknown
Elevation
Unknown
Doppler factor
Unknown
Orbital elements
Apogee altitude
531.955 km
Perigee altitude
415.754 km
Semi-major axis
6,851.991 km
Eccentricity
0.00848
Inclination
97.5389°
RAAN
57.7174°
Arg. of periapsis
86.5333°
True anomaly
273.59074°
Mean anomaly
274.5601°
Eccentric anomaly
274.07549°
Mean motion
3.82664 °/min
Orbital period
94.08 mins
BSTAR
0.00049541
Loading maneuver chart data...
Computing Atmospheric mass density...
Loading historical data...
Loading historical data...
Loading historical data...
Loading historical data...
Loading historical data...
Loading historical data...
Loading historical data...

Documentation

Showing up to 5 results
|